Home   Weather   Göttingen   Past weeks

Flag for Germany Past Weather in Göttingen, Lower Saxony, Germany — Yesterday and Last 2 Weeks

Now
28 °F

Ice fog.


Feels Like: 28 °F
Forecast: 19 / 30 °F
Wind: 1 mph from South

Location: Kassel / Calden

Current Time: Jan 25, 2017 at 12:27:05 am

Latest Report: Jan 24, 2017 at 11:50 pm


Visibility: 1 mi

Pressure: 30.42 "Hg

Humidity: 100%

Dew Point: 28 °F

Location of GöttingenLocation

Past Weather in Göttingen — Graph

°F

Göttingen Temperature Yesterday

Maximum temperature yesterday: 30 °F (at 3:50 pm)
Minimum temperature yesterday: 27 °F (at 12:20 am)
Average temperature yesterday: 28 °F

High & Low Weather Summary for the Past Weeks

 TemperatureHumidityPressure
High41 °F (Jan 11, 5:50 pm)100% (Jan 9, 10:20 pm)30.69 "Hg (Jan 9, 10:20 pm)
Low12 °F (Jan 23, 7:20 am)50% (Jan 15, 8:06 pm)28.91 "Hg (Jan 13, 3:20 am)
Average28 °F90%30.16 "Hg
* Reported Jan 9 10:20 pm — Jan 24 10:50 pm, Göttingen, Weather by CustomWeather, © 2017

Note: Actual official high and low records may vary slightly from our data, if they occured in-between our weather recording intervals... More about our weather records

Advertising

Göttingen Weather History for the Previous 24 Hours

Scroll right to see more
 ConditionsComfort  
Time TempWeatherWind HumidityBarometerVisibility
10:50 pm
Tue, Jan 24
28 °FIce fog.1 mph100%30.42 "Hg1 mi
10:20 pm28 °FIce fog.2 mph100%30.42 "Hg1 mi
9:50 pm28 °FIce fog.1 mph100%30.42 "Hg1 mi
9:20 pm28 °FIce fog.1 mph100%30.42 "Hg1 mi
8:50 pm28 °FIce fog.3 mph100%30.42 "Hg1 mi
8:20 pm28 °FIce fog.2 mph100%30.39 "Hg1 mi
7:50 pm28 °FIce fog.1 mph100%30.39 "Hg1 mi
7:20 pm28 °FIce fog.1 mph100%30.39 "Hg1 mi
6:50 pm28 °FIce fog.1 mph100%30.39 "Hg1 mi
6:20 pm28 °FIce fog.1 mph100%30.39 "Hg1 mi
5:50 pm28 °FIce fog.3 mph100%30.39 "Hg1 mi
5:20 pm28 °FIce fog.5 mph100%30.39 "Hg1 mi
4:50 pm28 °FIce fog.3 mph100%30.36 "Hg1 mi
4:20 pm28 °FIce fog.1 mph100%30.36 "Hg1 mi
3:50 pm30 °FIce fog.1 mph100%30.36 "Hg1 mi
3:20 pm28 °FIce fog.1 mph100%30.36 "Hg1 mi
2:50 pm28 °FIce fog.2 mph100%30.36 "Hg1 mi
2:20 pm28 °FIce fog.2 mph100%30.36 "Hg1 mi
1:50 pm28 °FIce fog.2 mph100%30.36 "Hg1 mi
1:20 pm28 °FIce fog.3 mph100%30.36 "Hg1 mi
12:50 pm28 °FIce fog.2 mph100%30.36 "Hg1 mi
12:20 pm28 °FIce fog.3 mph100%30.36 "Hg1 mi
11:50 am28 °FIce fog.2 mph100%30.36 "Hg1 mi
11:20 am28 °FIce fog.2 mph100%30.36 "Hg1 mi
10:50 am28 °FIce fog.1 mph100%30.33 "Hg2 mi
10:20 am28 °FIce fog.1 mph100%30.33 "Hg1 mi
9:50 am27 °FIce fog.1 mph100%30.33 "Hg1 mi
9:20 am27 °FIce fog.1 mph100%30.33 "Hg1 mi
8:50 am27 °FIce fog.1 mph100%30.30 "Hg1 mi
8:20 am27 °FIce fog.3 mph100%30.30 "Hg1 mi
7:50 am27 °FIce fog.3 mph100%30.30 "Hg1 mi
7:20 am27 °FIce fog.2 mph100%30.30 "Hg1 mi
1:20 am27 °FIce fog.2 mph100%30.27 "Hg1 mi
12:50 am27 °FIce fog.3 mph100%30.27 "Hg1 mi
12:20 am27 °FIce fog.3 mph100%30.27 "Hg1 mi
Weather by CustomWeather, © 2017

See weather overviewHow to use our weather pages